Date String (YYYY-MM-DD hh:mm:ss) UTC,Instrument flags,Ambient pressure (hPa),Sample flow (lpm),Bypass flow (lpm),Sample temperature (°C),Ambient temperature (°C),ASC tube jacket temperature (°C),LED temperature (°C),Box temperature (°C),Sample RH (%),Span deviation,Mass concentration (μg/m³),Mass concentration (μg/m³),Mass concentration (μg/m³)
DateTimeUTC,F1_M11,P_M11,Q1_M11,Q2_M11,T1_M11,T2_M11,T3_M11,T4_M11,T5_M11,U1_M11,ZSPAN_M11,X2_M11,X0_M11,X1_M11
2023-01-06 21:00:00,,0822.1,5.01,0.00,24.6,23.6,00.0,33.2,26.5,10.1,0000.0,0002.73,0003.96,0002.45
2023-01-06 21:01:00,,0822.1,5.01,0.00,24.6,23.6,00.0,33.2,26.5,10.2,0000.0,0002.80,0004.73,0002.49
2023-01-06 21:02:00,,0822.2,5.00,0.00,24.6,23.7,00.0,33.3,26.5,10.2,0000.0,0002.87,0005.07,0002.54
2023-01-06 21:03:00,,0822.2,5.00,0.00,24.6,23.7,00.0,33.3,26.5,10.5,0000.0,0002.91,0005.37,0002.59
2023-01-06 21:04:00,,0822.2,4.99,0.00,24.7,23.7,00.0,33.3,26.5,10.5,0000.0,0002.96,0005.41,0002.63
2023-01-06 21:05:00,,0822.2,5.01,0.00,24.7,23.7,00.0,33.3,26.6,11.1,0000.0,0003.06,0005.56,0002.70
2023-01-06 21:06:00,,0822.2,5.01,0.00,24.7,23.7,00.0,33.4,26.6,11.0,0000.0,0003.13,0005.67,0002.77
2023-01-06 21:07:00,,0822.3,4.99,0.00,24.7,23.7,00.0,33.4,26.6,10.6,0000.0,0003.17,0005.70,0002.84
2023-01-06 21:08:00,,0822.3,4.99,0.00,24.7,23.7,00.0,33.4,26.6,10.5,0000.0,0003.21,0005.77,0002.90
2023-01-06 21:09:00,,0822.4,5.00,0.00,24.8,23.8,00.0,33.4,26.6,10.4,0000.0,0003.26,0005.90,0002.99
2023-01-06 21:10:00,,0822.4,5.01,0.00,24.8,23.8,00.0,33.4,26.6,10.3,0000.0,0003.33,0005.94,0003.10
2023-01-06 21:11:00,,0822.4,5.00,0.00,24.8,23.8,00.0,33.4,26.7,10.5,0000.0,0003.37,0005.89,0003.16
2023-01-06 21:12:00,,0822.4,5.00,0.00,24.8,23.8,00.0,33.5,26.7,10.4,0000.0,0003.41,0005.66,0003.20
2023-01-06 21:13:00,,0822.4,5.00,0.00,24.8,23.8,00.0,33.5,26.7,10.4,0000.0,0003.45,0006.08,0003.27
2023-01-06 21:14:00,,0822.4,4.99,0.00,24.8,23.8,00.0,33.5,26.7,10.4,0000.0,0003.51,0006.16,0003.33
2023-01-06 21:15:00,,0822.4,5.00,0.00,24.9,23.8,00.0,33.5,26.7,10.4,0000.0,0003.58,0007.42,0003.39
2023-01-06 21:16:00,,0822.4,4.99,0.00,24.9,23.9,00.0,33.5,26.7,10.4,0000.0,0003.60,0007.44,0003.43
2023-01-06 21:17:00,,0822.4,5.00,0.00,24.9,23.9,00.0,33.6,26.7,10.2,0000.0,0003.65,0007.48,0003.47
2023-01-06 21:18:00,,0822.4,5.00,0.00,24.9,23.9,00.0,33.6,26.7,10.1,0000.0,0003.70,0007.53,0003.51
2023-01-06 21:19:00,,0822.4,5.00,0.00,24.9,23.9,00.0,33.6,26.8,10.1,0000.0,0003.76,0007.60,0003.57
2023-01-06 21:20:00,,0822.4,5.00,0.00,25.0,23.9,00.0,33.6,26.8,10.2,0000.0,0003.82,0007.79,0003.61
2023-01-06 21:21:00,,0822.4,5.01,0.00,25.0,24.0,00.0,33.6,26.8,10.2,0000.0,0003.84,0007.89,0003.65
2023-01-06 21:22:00,,0822.4,5.01,0.00,25.0,24.0,00.0,33.6,26.8,10.1,0000.0,0003.91,0008.00,0003.70
2023-01-06 21:23:00,,0822.5,4.99,0.00,25.0,24.0,00.0,33.7,26.8,10.1,0000.0,0003.94,0007.88,0003.72
2023-01-06 21:24:00,,0822.5,4.99,0.00,25.0,24.0,00.0,33.7,26.8,10.1,0000.0,0003.96,0007.60,0003.72
2023-01-06 21:25:00,,0822.6,5.00,0.00,25.0,24.0,00.0,33.7,26.9,10.1,0000.0,0003.97,0007.39,0003.71
2023-01-06 21:26:00,,0822.6,5.00,0.00,25.1,24.0,00.0,33.7,26.9,10.0,0000.0,0003.99,0007.34,0003.73
2023-01-06 21:27:00,,0822.6,5.01,0.00,25.1,24.0,00.0,33.7,26.9,09.9,0000.0,0004.06,0007.48,0003.77
2023-01-06 21:28:00,,0822.6,5.00,0.00,25.1,24.1,00.0,33.7,26.9,09.9,0000.0,0004.10,0007.58,0003.81
2023-01-06 21:29:00,,0822.6,4.99,0.00,25.1,24.1,00.0,33.8,26.9,09.9,0000.0,0004.13,0007.64,0003.84
2023-01-06 21:30:00,,0822.6,4.99,0.00,25.1,24.1,00.0,33.8,27.0,09.8,0000.0,0004.14,0007.61,0003.87
2023-01-06 21:31:00,,0822.6,4.99,0.00,25.1,24.1,00.0,33.8,27.0,09.8,0000.0,0004.18,0007.56,0003.91
2023-01-06 21:32:00,,0822.5,5.00,0.00,25.2,24.1,00.0,33.8,27.0,09.8,0000.0,0004.22,0007.55,0003.95
2023-01-06 21:33:00,,0822.6,5.01,0.00,25.2,24.1,00.0,33.8,27.0,09.7,0000.0,0004.23,0007.55,0003.98
2023-01-06 21:34:00,,0822.6,5.00,0.00,25.2,24.2,00.0,33.9,27.0,09.7,0000.0,0004.25,0007.57,0004.02
2023-01-06 21:35:00,,0822.6,5.00,0.00,25.2,24.2,00.0,33.9,27.0,09.7,0000.0,0004.30,0007.65,0004.06
2023-01-06 21:36:00,,0822.7,5.00,0.00,25.2,24.2,00.0,33.9,27.0,09.7,0000.0,0004.36,0008.41,0004.12
2023-01-06 21:37:00,,0822.7,5.00,0.00,25.2,24.2,00.0,33.9,27.0,09.7,0000.0,0004.39,0007.96,0004.16
2023-01-06 21:38:00,,0822.7,5.01,0.00,25.2,24.2,00.0,33.9,27.0,09.7,0000.0,0004.43,0007.93,0004.21
2023-01-06 21:39:00,,0822.7,5.00,0.00,25.3,24.2,00.0,33.9,27.1,09.6,0000.0,0004.48,0007.92,0004.25
2023-01-06 21:40:00,,0822.6,5.00,0.00,25.3,24.2,00.0,34.0,27.1,09.6,0000.0,0004.51,0007.94,0004.27
2023-01-06 21:41:00,,0822.7,5.00,0.00,25.3,24.2,00.0,34.0,27.1,09.6,0000.0,0004.55,0007.98,0004.29
2023-01-06 21:42:00,,0822.7,5.00,0.00,25.3,24.2,00.0,34.0,27.1,09.6,0000.0,0004.58,0008.02,0004.32
2023-01-06 21:43:00,,0822.7,5.00,0.00,25.3,24.3,00.0,34.0,27.1,09.6,0000.0,0004.59,0008.04,0004.33
2023-01-06 21:44:00,,0822.7,5.00,0.00,25.3,24.3,00.0,34.0,27.2,09.6,0000.0,0004.62,0008.10,0004.33
2023-01-06 21:45:00,,0822.7,5.00,0.00,25.4,24.3,00.0,34.0,27.2,09.6,0000.0,0004.64,0008.22,0004.34
2023-01-06 21:46:00,,0822.8,5.01,0.00,25.4,24.3,00.0,34.1,27.2,09.6,0000.0,0004.66,0008.37,0004.36
2023-01-06 21:47:00,,0822.8,5.00,0.00,25.4,24.3,00.0,34.1,27.2,09.5,0000.0,0004.67,0007.78,0004.37
2023-01-06 21:48:00,,0822.8,5.00,0.00,25.4,24.3,00.0,34.1,27.2,09.5,0000.0,0004.68,0007.72,0004.38
2023-01-06 21:49:00,,0822.9,5.00,0.00,25.4,24.3,00.0,34.1,27.2,09.5,0000.0,0004.68,0008.13,0004.38
2023-01-06 21:50:00,,0822.9,5.00,0.00,25.4,24.3,00.0,34.1,27.2,09.5,0000.0,0004.67,0008.17,0004.39
2023-01-06 21:51:00,,0822.9,5.00,0.00,25.4,24.3,00.0,34.1,27.2,09.5,0000.0,0004.67,0008.17,0004.39
2023-01-06 21:52:00,,0822.8,5.00,0.00,25.5,24.3,00.0,34.1,27.3,09.5,0000.0,0004.68,0008.18,0004.41
2023-01-06 21:53:00,,0822.8,5.00,0.00,25.5,24.4,00.0,34.1,27.3,09.5,0000.0,0004.68,0008.14,0004.42
2023-01-06 21:54:00,,0822.8,5.01,0.00,25.5,24.4,00.0,34.2,27.3,09.5,0000.0,0004.69,0008.13,0004.44
2023-01-06 21:55:00,,0822.8,5.01,0.00,25.5,24.4,00.0,34.2,27.3,09.5,0000.0,0004.71,0008.14,0004.47
2023-01-06 21:56:00,,0822.8,5.02,0.00,25.5,24.4,00.0,34.2,27.3,09.5,0000.0,0004.77,0008.36,0004.50
2023-01-06 21:57:00,,0822.9,4.98,0.00,25.5,24.4,00.0,34.2,27.3,09.6,0000.0,0004.83,0008.98,0004.56
2023-01-06 21:58:00,,0823.0,4.98,0.00,25.5,24.4,00.0,34.2,27.3,09.8,0000.0,0004.86,0008.97,0004.60
2023-01-06 21:59:00,,0823.0,5.00,0.00,25.5,24.4,00.0,34.3,27.3,09.6,0000.0,0004.91,0009.04,0004.64
